Wind_Speed
5 3 2 1 2 4 4 3 1 3 2 5 5 5 6 4 4 6 7 4 4 5 3 6 8 4 2 5 7 7 7 7 5 2 3 8 12 11 11 14 15 14 13 12 12 12 11 11 10 10 11 11 11 10 11 11 11 11 12 12 12 12 14 14 14 13 14 13 13 13 13 13 13 13 13 13 13 12 12 12 13 13 14 14 14 16 17 18 18 19 19 19 19 17 17 16 15
4 3 3 3 3 4 1 1 1 4 4 6 5 5 5 4 5 7 7 5 6 6 6 8 7 4 2 4 6 8 10 10 8 8 9 14 14 11 13 14 15 15 13 12 12 11 10 10 11 10 10 10 10 10 10 11 11 11 11 12 12 13 14 15 14 14 14 13 13 13 13 13 13 13 13 13 13 13 12 12 13 13 13 13 14 16 18 18 18 18 19 19 19 18 17 16 15
4 2 3 3 4 4 1 2 2 4 5 5 6 5 4 4 7 7 7 6 7 7 9 9 6 4 3 6 5 5 8 9 11 12 11 14 13 12 14 13 14 14 13 12 11 11 10 10 11 11 10 10 10 10 10 10 10 10 11 12 12 13 14 14 14 14 12 12 13 13 12 12 12 12 12 12 12 13 12 12 13 13 13 14 14 17 17 17 17 17 18 19 19 18 17 16 15
3 2 3 3 3 4 4 3 1 3 5 5 6 6 4 6 8 7 6 5 6 8 9 8 6 4 4 7 6 6 9 9 12 12 10 12 13 14 14 13 14 13 13 11 10 11 10 11 11 10 10 11 11 11 10 10 10 10 10 11 12 12 14 13 13 15 13 12 13 14 12 11 11 12 12 12 12 13 12 12 13 13 13 14 15 16 16 17 17 17 18 19 17 16 16 15 15
2 2 3 4 3 1 3 2 1 2 5 5 6 7 6 7 7 7 6 5 5 7 8 5 5 5 6 8 5 4 8 8 11 12 12 13 16 17 15 14 13 13 13 11 11 10 10 12 12 11 11 11 11 11 11 11 10 10 10 11 12 12 13 13 13 14 14 12 12 14 13 10 10 12 12 13 12 12 13 13 12 12 12 13 15 15 15 16 17 17 18 17 15 15 15 14 14
2 3 3 5 3 2 3 1 3 5 5 4 7 7 7 7 7 8 7 6 4 5 7 4 5 7 7 8 7 7 6 7 11 11 14 16 18 17 15 14 13 13 13 11 10 10 10 11 11 11 12 11 10 9 10 11 10 10 10 10 12 13 13 13 14 14 13 12 12 12 12 10 10 12 12 12 12 12 13 13 12 11 11 12 14 15 15 16 16 16 16 15 15 14 13 14 13
2 3 3 4 2 2 3 4 5 6 5 5 7 7 7 7 6 7 7 7 6 5 5 3 4 6 6 5 8 10 7 7 10 11 15 18 18 17 15 14 13 14 13 10 8 9 10 10 10 10 11 9 8 9 10 10 10 10 10 10 11 12 13 13 14 14 12 11 12 12 11 9 9 12 12 12 12 12 12 12 11 11 11 12 13 14 14 14 15 15 14 14 14 14 13 13 12
3 3 2 3 3 3 1 5 5 5 5 4 6 7 7 6 5 6 5 4 5 6 5 4 3 4 6 4 6 9 8 10 13 15 18 19 18 16 15 14 15 14 13 11 9 9 10 10 10 9 9 8 7 8 10 11 11 11 10 10 11 13 13 13 13 13 12 10 11 11 10 9 9 11 12 12 11 11 12 12 12 12 11 11 12 13 14 13 13 13 13 13 13 13 12 12 10
4 3 2 3 2 2 2 6 5 5 6 5 6 6 5 4 3 4 4 4 5 6 6 5 1 3 7 8 9 8 9 13 16 18 18 18 17 15 14 14 15 14 13 12 9 9 10 10 10 9 8 8 7 9 10 11 12 12 10 10 11 12 13 13 13 13 11 10 10 11 10 9 9 11 12 11 11 12 12 12 13 13 12 11 11 12 13 13 11 11 11 11 11 11 11 10 9
3 3 2 3 2 4 4 5 5 6 7 5 5 5 3 3 2 2 4 6 5 6 6 3 2 5 8 10 9 7 10 15 17 17 16 16 16 14 14 13 14 14 14 12 10 9 10 10 9 8 8 8 8 9 10 10 12 13 11 10 10 12 12 13 13 11 10 10 11 11 10 9 9 10 10 10 11 12 11 13 14 14 14 13 12 12 11 11 11 10 9 10 10 10 9 8 7
3 3 3 2 3 3 4 5 6 6 6 5 5 4 2 1 2 4 5 7 5 6 6 3 4 8 8 9 7 7 11 14 16 16 15 15 14 13 13 13 13 13 13 13 11 9 10 10 8 8 7 7 7 8 9 10 11 13 13 10 11 13 12 12 13 11 9 11 12 12 11 10 11 9 9 10 11 12 12 13 15 16 16 15 13 11 10 9 10 10 9 9 9 8 7 5 5
2 2 3 2 2 2 5 6 7 7 7 5 5 4 1 2 2 5 6 7 6 6 6 2 5 8 8 9 6 9 12 12 14 15 14 14 13 13 12 12 12 12 12 13 12 10 10 9 8 6 7 7 6 7 8 10 11 12 13 11 12 14 12 12 12 11 9 10 11 12 12 12 12 10 10 12 13 14 14 14 15 14 15 14 12 11 10 8 8 8 8 8 7 6 5 3 2
2 1 3 1 1 1 6 6 7 7 6 5 5 4 2 2 2 6 6 7 6 5 6 4 6 7 8 9 7 10 11 12 14 14 13 13 12 12 11 11 11 12 12 12 12 11 9 8 7 5 5 6 6 6 7 9 10 12 13 10 11 14 13 12 13 12 10 9 11 11 12 11 11 11 11 12 13 14 14 14 14 13 12 12 11 10 9 8 7 6 6 6 6 5 3 2 1
2 2 3 1 2 2 5 5 6 6 6 6 5 4 3 1 3 5 5 7 6 5 6 6 6 6 8 8 7 8 10 13 14 13 12 11 12 12 11 11 11 12 12 11 11 11 8 6 6 5 4 4 5 5 5 7 9 11 12 11 11 13 13 12 12 13 10 9 10 10 10 10 10 11 11 12 14 14 14 14 13 12 10 9 9 9 8 7 6 5 4 4 4 3 2 1 1
1 1 2 2 3 3 3 4 6 5 6 7 4 4 4 3 3 4 3 4 6 4 5 6 3 3 7 8 7 9 13 16 14 13 12 11 11 11 11 11 11 12 11 11 11 11 9 5 4 5 4 3 3 4 4 6 8 10 12 11 11 12 12 12 12 13 12 10 11 11 10 10 10 10 10 12 13 14 14 14 13 10 9 8 7 7 7 6 5 5 4 4 4 4 3 3 3
1 2 2 3 3 4 3 3 4 3 5 7 5 5 6 5 2 3 4 2 6 5 3 5 2 0 4 7 10 15 17 17 14 13 13 12 11 11 11 10 11 11 11 11 11 11 9 6 5 4 4 3 3 4 5 5 6 9 11 11 11 11 11 11 11 14 14 12 12 11 10 9 8 8 8 10 11 13 13 12 11 9 8 7 7 7 7 7 6 6 5 5 4 5 5 4 4
1 2 3 3 3 3 3 3 3 3 5 8 7 6 6 7 3 4 3 3 7 6 3 5 4 2 5 11 17 20 18 17 15 15 13 12 10 10 10 10 11 11 11 10 11 11 9 8 6 4 4 5 3 3 4 6 6 8 10 10 10 11 12 11 11 13 14 13 13 13 13 10 6 4 7 9 9 11 12 10 9 8 8 7 7 6 7 7 7 6 5 4 3 4 4 4 3
2 2 2 1 2 2 2 4 4 4 7 9 8 6 6 8 6 5 4 5 7 6 7 7 7 8 12 17 20 20 18 17 16 15 13 11 9 9 10 9 10 10 11 10 10 11 9 8 7 5 6 6 4 3 3 4 5 7 9 9 9 11 12 12 11 11 12 13 12 12 15 13 8 4 4 7 8 10 10 9 8 7 7 7 7 7 7 7 6 6 5 4 3 2 1 2 2
2 2 1 2 3 2 3 5 5 2 6 9 8 6 6 8 7 5 5 8 8 6 8 8 9 11 14 18 19 19 18 16 15 13 12 10 9 9 9 9 9 10 11 11 10 10 9 9 8 7 6 6 6 5 4 3 4 6 7 8 8 9 11 10 10 10 10 12 11 11 13 13 11 6 3 4 7 9 8 8 7 7 7 7 7 7 6 6 5 5 4 4 3 1 1 2 2
1 2 1 3 2 4 5 5 5 5 4 9 8 6 6 6 6 5 4 8 7 5 7 7 10 12 14 16 17 18 17 15 14 11 11 9 8 8 8 8 9 9 10 11 11 10 9 9 9 8 7 5 6 6 4 3 3 5 6 7 8 8 9 9 9 9 8 10 11 11 10 10 10 9 6 5 7 7 6 7 7 7 7 6 6 5 4 4 4 3 2 2 2 2 2 3 2
1 2 3 4 1 4 5 5 5 4 3 6 7 7 7 6 5 4 4 6 5 5 6 5 10 13 15 15 16 17 15 14 13 10 9 8 7 7 6 7 8 9 9 9 11 11 11 10 10 9 7 5 5 5 5 4 4 5 5 6 7 7 8 8 8 9 8 8 10 11 11 10 9 9 9 7 6 6 6 6 6 6 5 5 5 4 3 2 2 2 1 1 1 2 2 2 1
2 3 3 4 1 3 5 5 5 4 4 6 7 7 7 6 4 4 3 4 4 4 6 6 9 14 15 15 15 15 14 13 12 10 9 8 7 6 6 7 7 9 9 9 10 11 11 11 10 9 7 6 6 6 5 6 6 6 6 6 6 6 7 7 7 7 7 8 8 9 10 10 10 10 9 8 8 8 7 7 6 6 5 5 4 3 3 2 2 2 1 1 1 1 1 0 1
0 3 4 5 4 5 5 4 4 4 5 6 5 4 5 6 5 4 4 4 6 5 7 7 10 14 16 16 14 13 13 12 11 10 8 7 7 6 6 6 7 9 9 9 10 11 11 11 10 9 8 7 7 7 6 7 7 6 6 7 6 6 7 7 7 7 7 8 8 8 9 9 10 10 10 10 9 9 8 7 7 6 5 5 3 3 4 3 2 3 2 2 2 2 0 0 1
1 4 6 6 6 6 5 4 4 4 5 5 3 3 6 5 4 4 5 3 4 6 8 9 11 14 15 14 12 12 12 11 11 10 8 7 6 5 5 5 6 8 9 10 10 11 11 11 11 10 9 8 8 8 7 7 8 7 7 7 7 7 7 6 7 7 7 8 7 7 7 8 10 11 11 11 10 9 8 8 7 6 5 4 4 4 4 3 3 3 3 3 3 3 1 1 1
3 5 6 5 5 5 5 4 4 5 4 4 4 5 5 2 1 3 4 4 5 7 9 10 11 13 13 12 12 11 10 10 10 9 8 6 5 5 5 5 6 7 9 10 10 11 11 12 12 11 10 9 9 9 8 8 9 9 8 8 7 7 6 6 7 7 7 7 7 7 6 8 10 11 11 11 9 8 7 7 6 5 5 5 4 4 4 4 3 3 4 3 3 3 1 1 2
5 5 5 5 5 4 4 4 4 4 4 3 5 5 4 2 1 3 3 4 6 8 10 10 11 12 12 11 11 10 9 9 9 9 8 6 6 6 5 5 5 6 8 10 10 10 11 11 12 11 10 10 10 10 9 9 9 9 9 8 8 7 6 7 7 7 8 7 7 6 6 7 9 11 10 9 8 7 6 6 5 5 5 5 4 4 4 4 3 4 4 4 4 3 2 2 2
5 5 6 5 5 4 2 4 5 4 4 3 5 6 5 3 2 3 3 4 7 9 10 11 11 11 11 11 10 9 9 9 9 8 8 7 6 6 6 5 5 6 7 9 10 10 11 11 11 11 10 10 10 11 10 9 9 9 8 8 8 7 7 8 7 8 8 8 7 6 6 7 8 10 8 7 7 7 6 6 5 5 5 5 4 4 4 4 3 4 5 5 5 2 2 2 3
4 4 6 6 5 5 3 4 5 4 4 2 4 5 5 5 3 1 2 5 8 9 11 11 10 10 10 11 10 8 8 8 8 7 7 7 6 6 6 6 6 7 8 8 9 10 12 11 10 11 10 10 10 10 10 10 9 9 8 8 8 8 8 8 8 8 8 7 8 7 7 7 6 7 6 5 6 6 5 5 5 4 5 4 4 4 4 3 3 3 4 4 4 2 4 4 4
4 3 3 5 5 4 3 3 3 4 3 1 4 4 6 6 3 2 3 5 8 9 10 10 10 10 10 10 9 7 7 8 8 6 6 6 5 6 6 7 7 7 7 8 9 10 11 11 11 11 10 10 10 10 11 11 10 10 9 8 8 9 8 8 8 8 8 8 8 7 7 7 6 6 5 4 4 5 5 5 5 5 5 4 4 4 3 2 2 3 3 3 4 3 5 5 5
3 3 3 2 4 3 3 3 4 4 3 2 4 4 6 6 4 3 4 5 8 8 9 9 9 9 9 9 8 7 7 8 8 6 6 5 5 6 6 7 8 7 7 8 9 11 11 11 11 11 11 11 11 11 11 11 10 10 9 8 8 8 8 8 8 8 9 9 8 8 7 6 5 4 4 4 4 4 5 4 4 4 4 4 3 3 2 1 2 3 3 4 5 4 5 5 4
2 2 3 2 1 2 3 2 5 6 3 2 4 3 4 7 5 4 4 6 8 8 8 9 9 9 9 9 8 8 8 7 7 7 7 6 5 6 7 8 9 8 8 9 10 11 11 11 11 11 12 12 12 11 11 11 10 9 9 8 8 8 9 9 9 10 9 9 8 8 7 6 5 4 4 4 3 4 4 4 3 4 4 3 3 3 2 2 2 3 4 5 4 4 5 4 4
1 1 0 2 3 4 5 3 4 4 3 3 4 3 4 7 6 4 4 6 7 7 8 8 8 9 9 9 8 7 8 7 7 7 7 7 6 6 7 9 9 9 9 10 10 10 11 11 11 12 13 13 12 12 11 10 10 9 8 9 9 9 10 10 9 9 9 8 8 9 8 6 5 4 4 4 3 3 3 3 3 3 3 2 2 2 1 1 2 3 4 6 6 4 3 5 4
1 1 2 5 5 3 5 4 2 2 3 4 4 3 3 7 5 4 4 6 6 6 7 8 8 9 9 9 8 6 7 7 7 7 7 7 7 7 8 9 10 10 10 11 11 11 11 12 11 12 13 13 12 12 12 11 10 9 10 10 11 10 10 9 9 8 8 8 8 9 9 7 6 5 4 4 3 3 2 2 2 2 2 2 2 1 1 1 2 2 4 5 6 4 1 4 4
2 1 2 4 5 5 3 3 4 3 3 4 5 3 3 5 3 3 4 6 7 7 7 8 8 8 8 8 8 7 6 7 6 7 8 8 7 8 8 9 10 10 11 12 12 11 12 12 11 12 13 13 13 12 12 11 10 10 11 11 11 10 9 9 8 7 7 8 8 9 9 8 7 5 4 3 2 2 2 1 1 2 2 2 1 1 1 1 2 2 3 4 5 5 4 3 2
3 4 3 2 5 5 4 4 6 6 3 3 4 1 3 2 2 2 3 6 7 7 6 6 7 8 8 7 7 7 7 7 7 7 9 9 8 9 9 10 11 11 11 12 12 12 12 12 11 12 13 13 12 12 12 11 11 11 11 11 11 9 8 8 7 7 7 7 8 9 9 8 7 5 4 3 2 2 1 1 1 1 1 1 1 1 1 2 3 3 3 4 4 4 3 3 3
6 5 4 5 4 4 5 6 7 7 5 5 4 1 1 4 3 2 3 6 8 7 6 6 6 7 8 8 7 7 6 6 7 8 9 9 9 9 9 10 11 11 11 13 13 13 13 12 12 13 13 13 13 12 12 12 12 12 11 11 11 9 8 8 7 7 7 8 9 10 9 8 7 6 4 4 2 2 1 1 1 0 1 1 1 1 2 2 3 3 3 4 3 2 2 2 2
6 5 4 4 3 3 5 5 7 6 4 6 6 5 4 6 4 4 3 6 8 8 8 7 7 7 7 8 7 7 6 5 6 7 8 9 10 10 10 10 11 12 12 13 13 13 14 13 13 14 14 13 13 13 12 13 13 13 12 12 11 10 9 8 8 7 7 8 9 9 9 8 6 6 5 4 3 2 1 1 1 0 1 1 2 2 3 3 3 3 2 2 2 2 2 2 3
6 6 4 2 2 3 4 4 5 5 5 4 7 7 7 8 6 6 5 6 8 9 9 9 9 8 7 7 7 7 6 5 6 8 9 10 11 11 11 10 12 13 13 14 14 14 15 15 14 14 14 14 13 13 13 12 12 12 12 11 10 10 9 9 8 8 7 8 8 9 8 7 6 5 5 4 3 3 3 2 2 1 1 1 1 1 2 2 3 3 3 2 2 2 2 3 5
6 4 4 2 3 4 4 4 4 5 4 2 5 6 7 9 8 8 9 8 7 8 9 9 9 10 8 8 7 7 6 7 7 8 10 11 12 12 11 11 12 13 13 14 14 14 15 15 15 14 14 14 14 14 13 12 12 11 11 10 9 8 9 8 7 6 7 7 9 9 8 7 6 6 5 5 4 4 4 3 3 3 2 1 1 0 1 1 2 3 3 3 3 2 1 2 4
5 4 4 2 2 1 2 4 5 4 3 2 1 5 5 7 9 9 11 10 7 6 8 8 8 9 9 9 8 7 8 7 8 8 9 11 13 13 12 11 12 13 13 15 15 15 16 16 17 16 15 15 14 14 13 12 11 10 8 8 7 6 6 7 5 6 6 7 9 9 8 7 7 6 6 6 5 4 4 4 4 4 3 2 1 0 0 1 1 2 3 3 3 3 2 1 2
5 3 4 3 1 1 2 5 6 4 4 3 4 4 3 5 8 9 10 11 9 7 8 9 9 9 9 9 9 9 8 8 8 9 9 11 13 14 13 12 13 13 14 15 16 16 16 16 18 17 16 15 14 14 14 12 12 11 8 7 7 5 5 6 7 7 8 8 8 9 9 8 7 7 6 6 5 4 4 4 4 4 3 2 2 1 1 1 1 1 2 2 2 3 4 3 2
5 3 3 4 1 3 5 8 6 3 4 3 4 3 2 2 4 6 7 9 11 10 10 10 10 10 10 9 10 10 9 9 9 9 10 11 13 14 14 14 14 14 14 15 16 16 16 17 18 18 17 16 14 15 15 13 12 12 11 10 9 8 7 8 8 8 8 8 8 8 8 8 8 8 7 7 6 5 5 5 4 4 4 3 2 2 2 2 2 0 1 1 1 2 4 5 3
3 4 3 1 3 5 8 9 5 3 2 3 4 3 0 1 2 3 5 7 10 11 12 12 10 10 10 9 10 10 10 10 9 10 11 12 13 14 15 15 15 14 15 15 15 16 16 17 19 19 18 17 15 16 16 14 13 13 12 11 11 10 9 8 7 6 7 7 7 6 7 7 8 8 8 7 6 6 5 5 5 4 4 4 3 4 4 3 2 1 1 2 2 2 3 4 4
0 4 1 2 4 5 7 7 4 1 2 4 4 3 3 1 3 4 5 6 8 10 12 12 11 11 12 11 11 12 11 10 10 10 11 12 14 15 15 16 16 15 15 15 16 16 17 17 19 19 18 17 17 17 17 15 14 13 13 13 11 10 9 8 7 6 6 6 6 6 6 7 7 7 7 7 7 7 6 5 5 5 5 4 4 5 5 4 3 2 2 2 3 3 3 3 4
3 5 1 2 3 4 5 5 2 1 2 2 3 2 4 2 4 4 4 4 5 8 10 12 13 13 13 12 12 13 12 11 11 11 12 13 15 15 15 15 16 15 15 16 16 16 17 17 18 19 18 17 17 17 18 17 15 14 14 13 11 10 9 7 6 6 6 6 6 6 6 6 7 8 8 8 8 8 8 7 6 6 6 6 6 6 5 4 4 3 4 4 4 3 3 3 3
4 4 3 3 3 4 4 4 2 2 4 2 1 2 5 2 4 4 2 1 2 3 5 7 10 11 12 12 11 12 11 10 11 11 11 14 16 16 15 15 15 16 15 15 16 16 18 18 18 19 19 18 18 18 18 18 16 15 14 14 12 11 9 6 5 5 5 6 7 7 7 6 7 8 9 9 9 9 9 9 8 8 7 7 6 6 5 5 5 5 5 5 5 4 4 4 4
7 6 4 4 4 4 4 3 3 4 5 1 1 2 5 4 2 4 1 1 2 2 2 3 4 7 10 11 11 11 10 10 11 11 12 14 16 16 16 16 16 16 15 16 16 16 17 18 19 19 19 18 18 19 19 18 17 16 16 15 13 12 10 8 6 6 6 7 7 8 8 8 8 8 8 9 9 10 10 10 10 9 8 7 7 7 7 6 6 6 6 6 5 5 5 5 5
6 5 4 4 3 3 4 3 3 6 3 3 2 2 4 5 1 3 3 3 2 2 2 2 2 3 6 8 10 11 11 11 11 11 12 13 14 17 17 16 17 16 15 16 17 17 17 18 19 20 19 18 18 19 20 19 18 18 17 16 15 13 11 9 8 8 7 8 8 8 8 8 8 8 9 9 10 10 10 10 10 9 8 8 8 7 7 7 6 6 6 6 6 5 5 5 6
6 4 5 5 3 3 5 3 3 5 1 4 3 2 4 6 3 1 2 3 1 1 2 4 2 0 2 5 7 9 10 12 12 12 12 11 13 16 18 18 18 17 16 17 18 17 17 17 18 20 20 19 18 19 20 20 19 18 18 17 15 14 12 10 9 9 9 9 8 9 9 9 9 9 10 10 10 10 10 10 10 10 9 8 8 7 7 7 7 7 6 6 6 5 5 6 6
6 5 4 5 3 4 5 3 4 4 2 5 3 2 4 6 2 1 1 2 2 1 1 3 3 2 1 3 4 7 9 11 11 11 12 12 13 15 18 19 20 19 19 19 18 17 16 16 18 19 20 20 19 19 19 20 20 19 18 17 16 14 13 12 11 10 10 9 9 9 10 10 10 10 10 10 10 10 10 10 10 10 9 9 8 8 7 7 7 7 6 6 7 6 5 6 6
6 3 4 5 3 3 4 2 3 2 2 4 4 3 4 4 1 2 2 3 3 2 2 2 2 2 1 1 3 4 7 9 10 10 12 13 15 16 17 18 19 20 21 20 18 18 17 17 18 19 19 20 20 19 19 20 20 19 18 18 16 15 14 14 13 11 10 9 10 10 10 10 10 9 9 9 9 9 9 9 10 10 10 9 8 8 7 7 6 7 7 7 7 6 6 6 7
4 3 5 5 2 2 3 3 5 6 2 3 4 4 3 1 3 3 2 4 4 3 2 2 2 3 2 1 1 2 3 6 8 9 11 13 16 17 16 16 16 18 19 19 18 18 18 18 19 20 20 20 20 20 19 20 19 19 18 18 17 16 15 15 14 12 11 11 10 10 10 10 10 8 8 8 9 9 10 10 10 10 9 9 8 7 7 7 6 7 7 7 8 7 7 7 7
4 5 5 0 3 4 4 2 2 5 5 1 1 5 3 2 4 4 3 3 4 3 3 3 3 3 2 3 2 0 1 2 5 7 9 11 14 16 16 16 16 15 16 17 18 18 19 19 19 20 21 20 20 20 20 20 19 19 19 19 18 17 17 16 15 14 13 12 11 11 11 10 10 9 9 9 9 10 10 10 10 9 8 8 8 8 7 7 7 7 7 7 8 7 6 7 8
2 3 4 4 1 4 4 2 2 4 5 1 1 4 3 1 1 3 4 5 4 3 2 3 2 1 2 4 4 2 1 0 3 5 7 9 11 14 16 16 15 15 16 17 17 17 18 18 18 19 20 21 21 20 21 20 20 19 19 19 19 18 18 17 16 15 14 13 13 12 12 11 11 10 10 9 9 9 10 9 9 8 8 8 8 8 7 7 7 8 8 8 8 7 7 7 8
4 1 3 3 2 2 2 3 3 3 3 1 0 3 3 2 1 2 3 4 3 3 2 2 2 2 2 3 5 4 3 2 0 2 4 6 9 12 14 15 15 16 17 18 17 17 17 17 18 19 19 21 21 20 20 20 20 20 19 19 19 19 18 17 16 15 15 14 14 13 13 12 11 11 11 10 10 9 9 9 9 9 9 9 9 9 8 8 8 8 8 8 8 7 7 8 8
3 2 4 3 2 1 1 2 3 4 4 2 1 2 0 2 4 4 2 1 2 3 2 1 2 3 2 3 4 4 4 3 2 1 2 4 7 10 12 14 15 16 17 17 16 16 17 16 17 18 19 19 19 19 19 20 20 20 19 18 19 19 18 17 17 16 16 15 15 14 13 13 12 12 12 11 11 10 9 9 9 9 9 9 9 9 9 8 8 8 8 8 7 6 6 7 8
6 6 5 4 2 2 3 3 3 4 5 3 3 4 2 5 4 3 1 1 2 2 2 2 2 3 4 4 4 4 5 4 3 2 1 1 4 7 10 12 13 15 16 15 15 16 16 15 16 19 20 19 19 19 18 18 19 19 19 19 19 19 19 18 18 17 17 16 15 15 14 13 13 12 12 11 11 10 10 10 9 9 9 9 8 8 7 7 8 8 8 9 8 6 7 8 8
4 5 5 4 3 3 4 3 3 3 5 4 4 6 3 6 2 1 2 2 3 3 2 2 3 3 4 4 5 5 5 4 4 3 2 1 2 4 7 10 12 14 15 15 16 16 15 16 19 19 19 19 19 19 19 19 18 18 19 20 19 19 18 18 18 18 18 17 16 16 15 14 14 13 12 12 11 11 10 10 10 9 9 8 7 7 7 7 7 8 9 10 9 8 8 9 9
Wind_Direction
149 164 177 245 264 267 242 253 207 184 191 101 91 105 88 69 94 105 104 109 110 96 76 105 111 92 52 49 69 87 53 32 35 63 94 113 130 133 134 133 134 136 135 133 136 140 139 138 136 129 123 123 120 114 113 113 114 118 122 116 112 111 109 111 112 108 108 117 121 116 116 121 125 124 121 118 115 115 112 112 112 109 106 104 103 104 104 101 100 102 103 104 102 99 95 95 98
171 185 207 251 250 265 253 248 218 138 127 101 87 87 100 108 113 97 85 77 79 99 123 118 105 75 75 80 86 94 65 47 64 84 97 121 127 127 135 134 136 137 133 132 137 138 136 139 135 128 128 123 115 115 113 111 114 115 115 112 111 113 111 113 114 112 114 122 121 116 119 120 121 120 117 115 113 112 112 114 114 111 108 107 107 105 105 102 99 101 103 105 105 103 101 100 100
185 193 232 254 240 250 266 239 220 122 110 101 93 85 110 113 99 85 74 78 87 115 129 119 105 75 120 123 76 70 78 71 91 101 113 132 130 131 138 136 137 135 131 133 137 134 134 139 134 128 127 119 115 117 114 113 115 113 113 113 112 112 111 111 112 112 114 118 116 114 118 119 118 115 113 113 110 109 112 115 114 112 110 109 110 108 107 105 103 104 106 108 106 106 106 105 104
187 235 256 268 239 221 250 229 161 108 105 100 101 90 90 92 93 86 83 103 111 129 137 130 106 50 52 87 66 74 89 85 99 111 126 136 132 134 139 137 137 133 131 133 134 131 136 140 131 125 121 115 117 117 113 110 108 109 111 110 110 111 109 107 107 110 110 107 106 110 115 117 115 114 115 112 109 110 109 111 111 111 109 110 113 110 109 110 109 109 109 110 108 106 106 105 104
197 262 261 270 265 240 275 235 99 92 88 90 106 95 86 85 94 99 98 121 133 138 147 143 100 88 66 56 42 78 91 98 110 117 120 123 129 135 137 135 136 133 129 129 130 128 135 135 127 126 118 113 114 113 111 107 104 106 107 106 110 111 108 106 104 105 106 102 100 108 115 116 115 114 114 113 112 112 111 112 111 110 110 111 114 111 110 113 113 111 109 108 105 102 102 105 106
223 261 242 253 279 328 273 170 100 91 66 52 103 99 91 91 99 107 109 124 140 147 152 139 94 111 93 63 53 54 66 111 120 119 119 124 132 135 134 135 134 130 126 127 127 125 131 128 125 126 114 110 115 113 109 108 109 107 103 104 108 110 110 109 104 100 101 102 102 108 114 118 122 117 112 113 114 111 111 111 110 113 113 113 114 113 113 113 112 110 108 106 103 99 100 105 106
260 261 216 231 216 246 250 114 94 99 68 30 94 101 97 103 109 116 122 131 145 155 158 132 107 108 96 97 77 59 59 105 118 118 122 129 132 133 134 135 132 128 126 125 126 127 127 122 121 116 108 113 120 115 109 108 109 104 102 106 110 114 116 113 106 102 100 103 107 109 112 115 120 118 113 113 114 112 113 112 113 114 112 114 113 112 112 109 107 107 106 105 103 101 99 101 100
256 267 225 239 202 212 215 100 83 87 90 61 84 90 96 115 120 119 120 123 138 151 161 147 131 90 87 102 84 75 78 96 110 116 124 130 132 135 136 134 132 130 127 126 136 135 124 121 119 109 111 121 121 115 110 110 108 105 107 113 118 121 121 116 110 107 106 105 104 104 109 113 112 115 115 117 117 115 115 117 118 113 108 111 108 106 106 102 102 104 105 102 101 102 99 97 94
234 249 236 243 208 172 133 106 95 88 104 105 95 91 98 120 123 119 119 108 126 138 141 141 134 79 99 97 92 94 93 103 113 119 128 131 133 136 135 137 135 133 129 129 137 133 123 121 119 118 127 127 123 118 113 112 109 109 111 120 127 124 118 114 109 106 109 106 100 103 109 113 108 109 115 119 116 113 113 115 118 114 110 108 104 104 104 102 98 97 97 98 100 100 98 96 91
227 219 255 261 205 158 137 112 110 108 108 105 101 103 97 124 144 116 122 117 125 126 116 130 117 107 112 98 96 97 103 117 122 124 130 131 133 135 136 138 135 135 132 130 132 129 126 126 127 132 135 130 126 120 117 114 111 112 113 122 127 120 114 113 109 107 115 111 104 106 108 111 107 105 112 115 111 109 110 114 121 121 113 108 108 109 107 104 98 92 90 92 96 95 95 96 94
229 179 256 263 191 159 129 119 118 115 114 118 112 106 78 153 151 103 114 116 121 121 118 158 126 115 112 95 90 100 114 128 128 128 132 132 134 135 135 136 136 136 131 131 132 132 131 131 137 140 131 128 125 119 120 115 112 112 113 124 128 118 115 116 114 115 124 116 108 105 104 109 109 107 109 111 108 107 107 110 118 120 113 109 111 112 108 103 99 99 99 97 97 99 101 102 96
254 171 240 238 197 133 111 122 121 119 126 137 129 118 117 208 147 109 117 117 122 114 105 145 131 128 121 102 100 119 127 131 130 132 135 135 135 135 136 136 138 134 130 129 127 132 132 126 133 142 131 125 118 116 120 116 114 112 111 125 131 122 121 122 120 123 124 115 111 108 106 106 108 108 105 109 110 109 109 109 112 113 109 107 110 110 107 104 103 109 113 112 114 116 117 115 104
293 256 252 217 266 93 115 123 125 134 138 130 117 115 149 197 130 105 117 117 112 87 81 114 140 135 115 108 118 130 132 130 132 136 139 140 137 138 137 137 137 132 129 127 124 128 132 125 132 149 136 120 112 114 119 113 114 115 114 123 129 126 127 128 125 122 122 119 114 111 107 103 107 106 104 113 114 113 114 113 111 106 101 101 108 112 111 112 112 115 121 127 132 131 132 134 115
316 316 280 198 219 167 127 126 140 150 129 117 110 121 150 129 99 105 122 120 95 64 82 107 133 129 119 125 136 139 135 134 137 138 140 140 138 140 137 135 135 132 130 130 125 124 129 129 140 152 139 124 123 125 123 113 113 118 119 121 127 130 132 133 130 124 125 122 111 108 104 102 107 105 112 121 116 116 117 111 105 101 103 106 112 117 118 121 124 133 146 154 157 160 169 190 226
318 320 274 191 172 168 134 130 156 156 119 125 123 136 139 84 112 126 90 94 92 88 107 117 124 129 142 152 149 139 138 139 141 140 140 138 139 138 134 134 133 132 132 131 125 122 126 135 168 166 152 153 141 132 127 124 119 119 124 124 127 134 134 132 134 130 126 119 111 109 105 106 108 106 118 124 117 118 116 108 105 111 114 111 112 118 127 133 143 154 167 180 191 202 213 227 237
342 280 247 195 174 171 162 162 164 145 115 126 129 146 136 105 128 109 54 65 115 119 130 124 98 339 151 142 133 135 138 141 142 141 139 137 139 137 137 137 134 132 132 132 124 123 129 144 189 186 167 183 164 135 124 128 121 117 125 127 127 135 135 130 132 130 126 121 116 109 101 103 105 108 116 118 118 118 111 105 109 118 117 113 112 118 133 142 149 154 166 185 200 214 226 236 242
212 249 234 200 169 148 151 140 122 130 126 126 140 160 141 127 126 94 99 137 121 121 115 96 71 84 117 114 125 134 137 140 143 144 142 143 145 144 145 145 142 137 134 134 125 127 135 147 178 195 183 186 183 166 137 135 129 120 124 125 127 134 140 137 132 129 125 122 118 112 105 103 109 128 121 112 114 111 106 104 111 118 118 119 118 121 130 132 134 137 151 170 190 217 236 247 265
223 251 231 195 88 85 17 68 95 162 156 136 148 168 148 140 138 132 147 132 120 128 126 101 80 94 105 113 127 134 138 143 149 151 150 153 155 152 152 154 154 146 141 137 128 134 139 148 169 188 193 179 173 189 167 147 136 124 123 127 128 133 141 141 136 131 126 124 121 118 116 121 137 152 121 108 111 107 104 105 112 118 119 120 119 124 124 123 126 128 135 141 155 187 220 239 265
251 265 183 56 57 87 0 44 71 98 136 135 147 164 152 141 141 159 161 137 136 129 132 128 107 109 117 124 132 137 143 148 154 157 156 159 158 157 155 156 158 151 146 139 134 141 143 150 164 182 197 177 167 186 179 153 145 133 124 128 130 135 141 142 140 137 135 132 126 119 120 131 142 150 150 118 106 103 103 108 117 119 119 123 123 121 116 118 123 121 125 127 130 120 153 210 224
282 286 102 82 105 98 43 49 54 35 114 142 146 152 147 138 146 170 163 146 151 126 132 149 131 131 134 134 139 144 148 151 158 162 157 159 160 159 156 157 160 155 149 141 140 144 144 149 157 174 195 169 160 185 177 156 159 145 129 129 134 140 142 143 145 141 139 137 132 130 132 138 139 144 150 125 100 101 111 119 122 120 121 124 118 115 112 103 95 96 88 93 133 161 191 206 196
37 347 36 64 129 96 57 52 60 57 135 148 145 152 145 140 156 171 159 142 148 127 120 140 141 143 144 143 146 149 152 154 161 166 159 160 161 159 157 158 158 151 147 145 144 144 146 151 155 167 182 161 150 173 172 162 158 150 142 134 139 144 141 147 152 144 140 135 132 135 140 140 136 137 137 127 121 125 130 131 131 131 133 126 113 122 130 100 85 101 66 62 182 192 191 193 175
79 47 43 47 18 94 81 58 61 86 131 149 153 156 141 145 163 180 175 103 91 109 100 111 137 145 148 148 150 153 155 157 162 167 166 164 161 159 156 155 151 147 147 150 146 144 150 156 159 165 170 164 159 166 166 160 153 150 149 139 140 144 144 153 154 144 137 130 127 131 136 135 133 133 133 133 136 138 140 142 142 139 142 133 120 120 113 86 74 87 54 30 291 226 173 178 285
65 67 67 58 48 82 100 82 71 100 142 154 146 140 147 166 161 172 197 85 70 97 101 109 131 142 148 148 153 158 157 158 161 165 170 166 161 160 156 155 154 150 150 152 148 147 153 158 160 165 166 165 166 166 162 159 154 152 152 146 146 147 151 156 148 139 132 124 124 131 134 133 133 132 134 137 140 145 146 143 141 138 139 129 115 103 90 68 55 48 32 17 346 326 283 204 226
317 87 79 69 70 82 105 105 92 103 134 139 131 160 173 183 152 158 196 139 96 108 108 115 130 141 148 150 156 158 154 157 160 161 166 166 161 157 151 150 151 150 150 150 150 150 155 159 160 163 165 165 165 164 166 166 159 157 157 152 153 152 154 153 140 136 130 124 123 128 131 132 135 135 138 141 143 145 142 140 139 136 130 115 103 91 77 63 54 44 25 9 1 346 325 169 185
51 84 90 83 84 82 93 101 105 113 122 135 166 176 163 158 132 164 175 148 134 124 119 124 135 146 151 154 156 155 154 158 159 158 163 165 160 157 152 150 150 151 150 147 147 152 155 159 163 163 165 165 166 165 169 171 163 160 159 155 157 155 152 146 138 135 130 127 126 128 132 136 139 140 141 141 141 140 137 138 134 126 115 103 97 84 72 62 55 47 26 17 23 4 4 119 162
62 84 104 98 97 90 92 102 107 119 119 155 185 172 140 130 213 182 148 141 148 137 133 134 141 152 156 156 155 154 157 161 161 159 162 163 163 166 161 155 155 152 147 143 144 151 155 160 163 163 164 167 169 168 167 169 164 159 159 159 159 153 149 145 140 136 133 133 133 134 133 137 144 143 141 140 140 138 135 129 122 118 105 92 84 78 68 55 49 43 31 26 24 10 48 95 151
88 103 108 100 105 102 105 120 118 128 113 142 199 174 141 148 209 181 129 161 166 149 143 143 148 154 157 157 153 156 160 162 163 161 161 164 169 173 167 162 159 150 147 146 144 148 153 157 159 159 163 166 169 168 165 165 161 158 160 161 157 153 152 149 144 138 135 135 136 138 132 135 144 142 142 145 143 136 129 121 112 106 95 84 72 69 61 45 32 29 28 20 16 23 78 100 140
117 125 122 117 126 120 127 140 133 154 125 126 203 172 152 165 191 146 111 170 172 157 149 150 153 151 156 155 149 158 163 160 166 170 168 166 169 170 166 164 160 155 155 152 146 148 152 152 153 157 162 163 166 168 163 162 161 161 160 159 155 154 155 152 146 138 134 134 137 140 138 140 144 144 145 145 141 132 123 118 107 94 84 75 59 53 48 36 17 25 30 16 17 58 98 103 129
131 183 171 127 154 140 126 157 156 169 149 174 199 182 181 174 159 91 117 167 172 164 154 154 154 149 156 155 149 160 163 161 170 179 175 167 163 162 162 160 159 159 158 154 150 151 149 148 151 155 159 161 166 168 165 163 162 162 159 156 155 155 155 150 142 137 135 137 142 145 147 148 147 150 145 135 139 131 120 113 104 90 71 62 52 39 32 31 19 33 37 36 50 87 110 112 127
150 230 261 149 182 150 106 166 171 157 138 202 206 201 185 155 105 96 138 165 172 168 159 159 156 151 158 157 156 162 163 169 173 177 177 173 168 161 157 155 159 157 154 158 157 153 148 148 153 156 160 161 165 167 165 164 161 159 156 152 154 153 151 145 140 141 141 145 150 153 155 156 154 151 139 131 142 138 127 112 99 86 65 56 52 30 6 34 33 29 30 44 64 93 114 118 122
196 275 271 257 221 107 84 149 175 167 145 210 213 208 165 129 99 112 152 171 174 169 159 162 158 156 160 160 165 162 164 177 175 173 175 176 173 161 154 152 159 157 156 162 159 155 151 150 154 156 160 161 163 165 163 162 159 155 152 149 151 150 148 147 147 148 150 153 157 160 162 161 156 145 135 134 143 145 135 116 96 76 62 51 56 33 357 24 30 32 31 32 48 79 115 123 115
223 323 292 351 21 106 96 108 181 182 153 198 226 230 136 110 95 119 162 177 179 171 160 165 163 162 163 163 171 166 163 172 174 173 170 176 174 160 154 153 159 159 158 160 157 158 154 151 155 155 158 160 161 162 160 160 157 151 148 149 150 150 150 150 152 154 156 160 162 164 164 162 156 144 138 140 147 154 140 123 101 73 61 47 54 40 358 16 17 40 31 22 31 41 127 134 122
159 321 33 22 16 85 99 102 144 154 156 175 211 241 108 91 82 114 168 178 183 183 168 170 167 166 168 166 172 169 161 166 175 174 165 172 172 161 156 154 159 160 157 158 158 162 157 153 157 155 156 158 159 160 159 159 157 152 150 151 152 153 154 153 157 159 159 162 163 162 161 161 156 146 142 143 155 162 146 134 110 80 62 48 51 33 15 20 7 43 35 21 25 11 71 125 131
106 345 38 52 29 39 90 129 145 153 190 177 196 246 47 54 56 109 170 184 189 195 179 174 170 169 173 172 172 169 168 169 174 175 167 169 166 161 158 154 158 158 158 159 159 162 158 156 157 155 156 157 159 160 161 161 158 156 155 155 155 157 159 157 160 160 160 161 158 157 158 159 156 148 148 147 159 168 158 144 92 69 53 49 47 29 42 30 8 28 36 20 17 10 20 60 80
13 4 3 38 49 49 77 119 150 160 187 175 193 266 33 345 306 100 186 197 199 203 191 184 176 172 174 180 178 169 174 172 168 173 169 165 163 162 158 155 158 158 160 160 158 160 157 156 156 155 157 158 160 162 163 163 160 161 161 159 161 164 163 159 161 161 159 157 153 154 155 159 160 155 156 153 164 180 175 166 89 62 55 46 17 30 47 48 28 13 25 18 9 14 20 23 20
344 350 342 345 31 57 71 97 145 163 179 170 171 149 148 263 246 141 208 207 206 207 200 201 191 179 177 186 184 170 179 172 157 168 168 164 163 162 160 160 160 159 161 159 159 160 157 158 157 158 161 160 161 164 166 167 165 166 167 165 167 171 168 163 166 165 161 156 151 154 157 161 165 162 162 159 165 178 183 174 129 49 49 58 32 36 35 42 34 13 19 9 358 11 17 21 16
318 312 317 341 33 72 82 105 148 178 206 174 168 166 190 244 224 166 214 217 211 209 203 206 207 199 189 191 187 175 182 163 146 166 171 168 165 162 162 163 163 160 162 163 163 163 160 161 160 161 164 164 165 168 170 170 169 171 172 172 172 171 170 167 168 169 165 159 153 156 161 166 168 163 164 165 169 175 186 196 173 141 64 75 48 35 33 32 22 15 15 345 344 5 359 17 15
299 299 306 330 59 82 90 107 143 189 237 178 173 191 197 218 209 176 205 223 215 210 208 207 208 212 208 204 197 186 182 159 158 176 177 174 168 166 166 167 168 165 165 169 168 166 164 163 163 164 166 168 171 171 172 174 174 176 175 175 172 169 172 174 172 173 171 165 163 164 165 170 171 164 165 167 174 186 196 204 192 180 152 110 82 52 42 36 17 17 20 346 340 355 346 12 9
285 287 293 312 89 105 119 131 142 185 244 159 172 219 213 204 197 182 200 221 221 212 217 218 214 215 216 216 209 203 194 172 177 189 181 178 173 170 171 170 173 170 169 173 171 168 168 166 165 168 170 172 174 173 175 176 176 179 179 177 174 169 175 179 173 172 174 172 173 174 172 175 175 173 175 177 184 194 198 205 200 192 182 171 158 86 37 44 24 21 29 15 347 309 300 25 13
266 279 286 322 108 171 137 147 160 182 249 336 245 244 232 202 195 192 200 211 213 206 216 226 228 227 224 225 221 215 206 188 191 197 186 181 177 176 178 174 174 175 174 176 174 172 173 171 169 170 173 175 176 175 176 176 175 178 180 180 178 170 174 181 179 179 183 178 177 180 180 179 182 184 185 188 193 196 196 206 210 198 191 201 200 199 289 354 26 26 37 27 350 315 316 5 13
216 242 289 334 74 296 42 129 160 180 213 259 281 253 210 192 199 202 199 200 203 199 206 215 221 231 234 234 233 227 217 203 200 203 192 184 181 182 183 178 178 179 180 180 178 177 177 175 172 171 173 176 177 176 175 173 175 178 180 181 185 183 180 186 190 188 185 183 183 184 185 184 187 190 190 192 197 195 197 209 216 208 203 221 238 247 274 314 339 22 43 26 357 332 323 326 334
194 134 340 331 89 128 124 143 168 207 190 193 269 266 136 152 204 201 183 191 203 201 206 212 210 217 226 232 236 233 225 214 207 207 200 190 186 186 184 183 184 183 184 185 182 181 179 176 175 173 173 176 178 178 177 175 176 183 188 189 190 192 192 192 193 189 182 184 188 184 183 185 188 192 193 196 198 196 200 209 218 222 218 228 253 268 274 278 275 292 31 334 335 349 322 315 309
218 92 21 320 149 154 156 162 191 263 98 142 239 268 86 141 163 156 167 195 210 204 209 215 210 210 213 218 228 230 227 218 210 209 206 196 190 190 188 189 191 189 186 185 185 183 181 178 177 177 176 177 178 179 180 181 181 186 193 196 195 195 195 193 192 192 184 184 186 182 183 184 187 195 196 197 201 201 202 207 216 226 230 234 240 254 261 263 269 296 335 302 303 320 311 307 307
309 77 51 157 157 174 172 179 210 293 83 147 200 249 281 231 121 128 178 206 211 209 214 215 210 210 211 211 214 222 225 219 211 208 207 201 196 195 194 193 195 194 187 185 186 185 182 181 180 180 180 180 180 180 183 187 187 189 195 199 200 199 198 192 192 200 197 192 190 186 189 186 187 198 201 201 206 208 210 210 214 221 229 235 235 241 250 253 259 264 257 264 266 268 276 294 306
60 76 104 142 166 185 183 203 221 185 213 192 168 226 268 235 133 143 191 209 206 211 215 216 214 211 212 212 206 212 221 220 215 211 206 202 201 200 196 195 198 197 190 186 188 185 183 183 183 183 183 182 182 181 184 190 192 192 194 198 201 203 202 196 193 200 203 205 204 199 199 195 193 201 206 208 211 213 215 213 212 219 225 230 235 238 238 236 239 240 237 242 242 246 259 272 282
97 124 150 136 161 180 199 226 207 205 248 262 110 262 284 261 145 147 193 199 153 177 188 204 214 213 216 217 205 203 213 219 217 214 211 204 202 201 196 194 200 200 193 189 190 187 183 184 185 187 187 186 185 184 185 191 193 194 196 199 202 202 203 204 201 200 201 206 210 208 205 206 205 206 207 209 213 215 216 217 217 220 225 228 233 236 233 232 232 231 232 237 241 249 255 258 264
137 169 172 159 172 178 203 230 224 240 249 207 107 282 292 283 140 112 106 92 60 51 105 136 184 208 217 218 209 199 200 212 216 214 214 207 203 199 193 195 202 203 197 191 191 189 186 185 186 189 191 190 189 188 188 191 195 198 200 202 203 204 204 205 205 205 205 208 213 212 207 208 211 211 210 209 212 214 214 217 221 223 226 227 230 233 235 235 234 231 229 229 236 246 254 262 269
177 203 195 193 192 187 210 218 235 256 247 113 112 227 263 270 281 76 100 114 68 0 357 38 120 188 209 215 216 206 198 205 211 215 215 207 203 196 188 193 202 202 202 198 192 190 189 187 187 190 193 193 193 193 192 194 197 200 203 204 205 206 208 209 209 211 213 215 217 216 210 208 211 213 215 212 211 212 210 214 220 223 226 228 231 235 236 240 244 243 237 234 240 244 251 263 270
212 217 205 213 201 200 227 219 234 259 204 114 127 190 249 263 276 28 149 152 94 16 344 345 5 75 204 208 218 215 206 206 207 213 213 205 206 198 186 190 196 194 202 206 197 191 190 189 189 191 193 194 196 196 196 196 199 201 204 205 205 207 211 214 215 217 220 221 221 220 214 211 211 213 216 215 214 212 209 211 218 221 225 229 233 236 237 243 250 252 249 247 249 250 250 256 265
212 214 220 233 223 225 234 209 225 246 133 116 131 180 254 259 259 39 145 143 95 67 9 351 5 16 254 220 219 217 211 212 210 210 211 206 208 203 192 191 189 186 196 206 200 193 192 190 191 193 194 195 198 200 200 200 201 202 204 205 206 207 211 214 217 221 223 222 222 223 221 217 214 213 215 216 216 217 215 214 217 221 226 229 232 236 240 243 245 251 255 254 255 255 252 253 261
206 232 254 264 276 269 270 260 269 292 110 131 157 201 267 272 129 61 68 113 112 100 74 28 30 59 49 236 228 222 212 214 216 213 212 209 207 208 203 196 189 185 193 200 198 194 194 192 192 194 195 195 199 202 203 203 203 203 204 206 208 209 211 213 216 221 223 223 224 224 224 225 221 215 214 215 216 219 221 219 220 224 227 228 232 236 240 241 239 244 250 253 256 254 249 252 259
185 220 243 262 306 301 300 322 325 324 297 177 178 231 289 303 181 175 146 142 132 121 127 103 55 71 82 125 196 222 216 210 216 216 216 212 208 208 206 202 199 193 192 195 194 194 195 194 192 194 196 197 199 202 205 207 206 205 205 207 211 211 211 211 212 216 220 223 227 225 224 228 230 224 217 216 217 218 222 224 225 227 227 229 233 235 239 241 237 240 245 248 252 252 250 253 261
160 203 217 179 4 296 278 271 287 287 275 244 199 254 252 166 196 193 197 194 159 159 163 110 58 55 79 74 79 71 222 205 218 219 218 215 210 207 205 205 205 200 195 195 194 194 195 195 193 193 195 197 199 200 204 208 208 208 208 210 213 214 212 212 212 212 216 220 224 227 227 227 229 228 224 220 219 219 222 225 229 231 228 230 233 232 235 238 236 239 241 241 247 252 252 256 263
216 207 161 109 52 275 275 271 239 250 263 258 266 287 291 266 239 173 201 226 193 182 166 121 109 62 64 71 71 52 42 172 222 223 223 220 211 207 206 205 203 202 199 194 192 193 195 196 197 197 197 198 200 200 202 205 208 211 212 213 215 216 215 216 215 214 215 218 220 223 226 227 226 225 225 225 225 223 222 224 230 234 232 232 234 234 234 234 233 237 240 242 246 250 255 259 264
276 304 136 171 224 218 232 274 277 270 283 285 113 312 305 300 352 126 193 232 207 182 160 133 124 76 44 62 73 55 36 45 241 223 224 223 215 209 206 203 200 198 195 189 188 194 199 201 202 204 204 204 204 203 202 203 206 210 213 214 215 216 218 219 219 219 218 218 219 221 223 225 225 223 223 226 230 230 225 221 224 228 231 231 232 233 235 233 234 240 244 248 247 244 250 261 267
233 214 181 219 274 283 253 278 294 294 304 327 336 293 242 74 17 6 0 252 197 171 142 92 62 67 41 35 54 48 36 30 16 337 230 225 220 214 206 200 194 189 191 191 193 201 204 205 209 208 206 207 210 210 206 205 207 209 212 214 215 215 217 220 221 221 220 220 220 222 224 224 223 224 223 223 227 232 230 225 225 229 231 231 231 234 236 234 237 244 251 260 263 255 253 264 273
194 208 201 203 215 259 258 248 268 293 304 320 313 300 58 72 29 353 25 121 142 125 113 93 57 57 50 36 33 36 40 33 23 13 330 249 226 215 203 199 195 194 201 206 209 212 207 206 214 213 205 205 211 212 211 210 211 211 212 213 215 215 216 219 221 221 221 221 221 223 225 225 224 225 225 225 225 226 228 228 230 234 235 235 233 236 243 245 245 249 255 263 269 263 260 269 275
232 234 222 211 206 231 253 235 209 255 293 311 315 309 28 80 64 16 74 122 131 123 131 112 84 68 61 47 33 33 34 30 27 18 0 330 241 219 205 207 210 210 213 213 213 215 210 208 216 215 207 207 212 212 211 211 213 214 215 215 215 216 217 220 222 222 221 222 221 222 223 224 225 225 224 226 225 223 224 227 231 235 239 241 238 238 247 253 254 257 262 267 270 265 262 266 266
Height
785 785 785 785 783 784 782 783 793 783 778 794 794 795 799 791 791 793 797 796 794 792 785 785 784 786 790 792 795 797 798 802 807 813 822 815 808 812 811 813 814 815 817 818 819 819 820 821 822 823 823 824 826 827 827 827 827 827 827 827 827 828 829 831 831 832 833 832 831 833 834 834 834 834 834 834 833 833 833 832 832 832 833 833 834 834 835 835 836 836 837 837 837 837 839 840 842
785 785 784 785 782 785 782 781 794 786 785 803 798 796 797 789 793 796 798 796 793 789 783 783 786 787 788 786 787 793 800 799 798 802 808 808 810 812 812 814 815 816 817 818 819 820 821 822 823 824 824 825 826 827 827 828 828 828 828 828 829 830 831 832 832 833 834 833 832 833 834 834 834 834 834 835 834 834 834 833 833 833 834 834 834 835 835 836 837 837 838 839 839 840 841 842 842
786 785 784 785 782 782 780 782 791 789 795 808 803 796 792 793 797 797 795 793 789 784 783 786 789 789 788 791 792 798 804 798 796 800 806 809 811 812 814 815 815 817 818 819 820 821 823 822 823 824 825 826 827 827 828 828 828 828 829 829 830 831 832 832 833 834 834 833 833 834 835 835 835 835 835 835 835 835 835 835 834 835 835 835 835 836 837 837 838 839 839 840 842 843 844 844 845
785 785 784 784 783 782 782 785 786 787 798 805 805 798 791 795 796 796 793 789 785 783 787 788 792 789 789 798 795 798 804 800 799 801 806 809 810 813 814 815 817 818 819 820 821 822 823 823 824 825 826 826 827 828 828 829 829 829 830 831 832 832 832 833 834 835 834 833 834 836 835 835 835 836 836 836 837 836 836 836 835 836 836 836 836 837 838 839 839 840 841 842 843 844 845 846 846
785 785 783 783 785 785 783 784 782 788 799 799 804 801 793 795 794 796 792 788 785 785 788 788 796 791 788 795 793 800 805 801 802 801 804 808 811 814 815 816 818 818 820 820 821 823 823 824 824 825 826 827 827 828 829 830 830 830 831 832 833 833 833 833 834 835 836 834 835 837 837 836 836 837 837 838 838 838 838 837 836 836 837 837 837 838 839 839 840 841 842 843 844 844 845 846 847
785 784 782 782 782 783 786 789 789 796 800 793 800 800 794 794 794 795 793 790 787 785 786 788 794 793 795 796 792 800 801 801 803 802 805 809 813 815 816 817 818 819 821 821 822 823 824 824 825 826 827 827 828 829 830 831 831 832 832 832 833 833 833 834 834 835 837 837 837 838 838 838 838 838 839 839 839 839 839 838 838 837 837 838 839 839 839 840 840 841 843 843 844 845 846 847 847
784 784 783 784 781 782 788 791 794 799 799 792 795 797 794 795 792 794 795 794 792 787 786 788 788 793 802 798 797 801 799 800 801 804 807 810 814 815 817 818 819 820 821 822 822 823 824 824 825 826 827 828 828 829 831 832 833 833 833 834 834 833 833 834 834 835 837 838 839 839 839 839 839 840 840 840 840 840 840 840 839 838 838 839 840 841 841 841 841 842 843 844 845 846 847 847 848
784 784 781 787 788 784 787 792 795 797 798 794 792 795 795 794 792 794 796 795 795 792 790 789 786 798 804 796 804 805 800 803 802 807 809 811 815 816 818 818 819 820 822 823 823 824 825 825 826 827 828 829 829 831 832 833 835 835 835 834 834 834 834 834 834 835 838 840 840 841 841 840 840 841 842 842 842 841 841 841 840 840 839 839 840 841 841 841 842 843 843 845 846 846 847 848 849
782 784 783 787 789 788 789 796 800 797 798 795 794 795 794 793 792 794 797 796 794 792 792 790 788 803 805 799 807 804 801 806 806 810 810 813 815 816 818 819 821 821 823 823 823 825 826 827 827 828 829 830 831 832 833 834 836 837 836 835 835 835 836 836 836 837 839 841 842 842 842 841 841 842 843 843 843 842 843 843 842 842 841 840 840 841 842 842 843 843 844 845 846 847 847 848 849
782 784 786 787 787 793 796 798 801 800 798 795 795 795 794 793 793 793 796 797 793 793 793 788 791 801 803 804 808 804 804 808 808 811 812 814 816 817 819 820 822 822 824 824 825 826 827 828 828 830 830 831 833 833 835 836 837 838 837 836 836 837 838 837 837 838 840 842 843 843 843 842 842 842 844 844 843 843 843 844 844 844 844 843 842 842 843 844 845 844 845 845 846 847 848 849 850
786 784 785 791 791 794 798 799 802 801 798 796 796 794 794 793 793 794 795 797 793 793 793 790 797 800 802 807 808 806 806 808 809 812 813 815 817 818 819 821 823 824 825 826 827 827 828 829 829 830 830 832 833 834 836 836 838 839 839 837 837 838 840 839 839 840 840 842 843 844 844 843 843 843 844 844 844 844 844 844 845 846 846 846 845 845 844 845 846 846 847 847 847 848 848 850 850
789 787 786 797 795 790 793 799 803 802 799 798 799 795 793 792 794 796 797 798 794 795 793 793 797 796 805 811 808 807 806 808 810 812 814 816 817 819 820 822 823 825 827 827 828 829 829 830 830 830 830 832 833 835 836 837 839 839 840 839 838 839 841 842 842 842 841 843 843 844 844 844 844 844 844 845 845 844 845 845 845 846 846 847 848 847 847 846 847 847 848 848 849 849 850 850 851
789 789 789 799 794 789 792 799 802 802 801 799 798 795 792 794 795 795 796 797 796 800 796 790 790 792 807 812 807 807 807 809 811 813 815 816 818 820 821 823 824 826 827 828 829 829 830 830 830 830 830 832 833 835 836 837 839 840 841 840 840 840 841 843 843 842 842 842 843 843 844 844 845 845 845 845 845 845 845 845 846 846 846 847 848 849 849 848 847 847 848 849 850 850 851 851 851
786 787 790 799 794 790 792 799 802 801 802 797 796 794 792 795 793 791 794 800 801 800 793 786 786 796 808 811 810 807 807 810 811 814 815 817 819 820 822 823 825 827 828 829 830 830 830 830 830 830 830 832 834 835 836 837 838 840 841 841 842 842 842 843 843 843 842 843 843 843 843 844 845 846 846 846 845 845 845 846 846 846 847 847 848 849 849 849 849 849 849 849 850 851 851 852 852
784 785 789 795 795 792 792 797 797 797 801 797 795 794 794 795 791 792 794 800 802 792 788 787 787 799 806 808 812 806 806 811 811 814 815 817 819 820 823 824 826 828 829 830 831 831 831 830 829 831 831 831 833 835 836 837 839 840 841 842 841 841 842 843 843 843 843 844 843 843 843 843 845 846 847 847 846 846 846 846 846 847 848 848 849 849 850 850 850 850 850 851 851 852 852 852 852
780 784 790 795 795 796 794 793 793 799 800 795 795 792 797 797 790 795 793 792 798 790 790 793 789 796 798 799 805 803 806 811 811 815 815 818 820 821 823 824 827 828 830 831 832 833 832 831 829 831 832 831 832 834 837 838 839 840 841 842 841 841 841 842 843 843 844 844 844 844 843 842 843 846 848 848 847 846 846 846 847 848 849 849 849 850 851 851 852 852 852 852 852 852 852 852 852
778 786 794 795 793 796 793 792 800 809 803 795 796 793 799 802 793 793 789 787 796 795 794 793 789 790 792 794 799 803 807 810 812 814 815 818 819 821 823 824 826 827 830 831 832 833 833 833 830 831 832 832 832 833 836 838 839 840 841 842 842 842 842 843 843 844 845 845 846 846 845 844 844 845 848 849 848 846 846 847 848 849 849 850 850 851 851 852 852 853 853 853 853 852 852 852 852
784 791 796 797 797 798 792 792 801 805 800 796 797 794 797 802 798 793 791 794 796 797 796 794 793 791 792 796 800 805 808 810 812 813 815 817 818 819 821 823 824 826 829 831 832 834 834 834 832 832 831 832 833 833 835 837 838 840 841 842 843 843 843 843 844 844 846 847 847 846 848 850 849 846 846 847 847 847 847 847 848 849 850 850 851 851 852 852 853 853 853 853 853 852 852 852 852
786 790 797 805 802 798 791 790 794 794 795 795 795 794 794 798 797 793 798 803 799 801 801 797 799 798 797 799 803 806 808 810 811 812 814 815 817 818 820 822 823 825 827 830 832 833 834 834 833 831 830 832 834 833 834 836 838 839 841 842 843 844 844 844 844 845 846 848 848 846 848 852 852 848 846 846 846 846 847 847 848 849 850 850 851 852 852 853 853 853 853 853 853 852 852 852 852
784 784 798 806 797 794 791 790 792 791 791 794 797 794 794 796 793 794 800 802 800 802 802 799 804 804 801 801 803 806 807 809 811 811 813 814 816 817 819 821 822 825 826 829 831 833 834 834 833 831 830 833 834 833 835 836 837 839 840 842 843 844 844 845 845 845 846 847 848 848 849 851 852 850 847 846 845 846 847 848 849 849 850 851 851 852 852 852 852 852 852 852 852 852 852 852 852
783 786 798 798 788 795 796 791 792 790 790 794 796 796 798 795 791 795 798 803 804 799 795 795 800 802 802 802 802 805 807 808 810 811 812 813 815 817 819 820 822 824 826 828 830 832 834 834 833 832 831 833 834 834 835 836 837 839 840 841 843 843 844 845 845 846 846 847 847 849 850 850 851 850 848 847 847 848 849 849 850 851 851 852 852 852 852 852 852 852 852 852 852 852 852 851 851
786 792 793 791 787 795 797 791 792 790 791 794 796 798 797 793 793 796 796 804 805 794 790 790 792 796 799 801 803 804 805 807 809 811 812 813 815 817 819 820 822 824 826 827 828 831 833 834 833 833 833 833 835 835 835 836 837 839 840 841 842 842 843 844 845 846 846 846 847 848 849 849 850 850 849 849 849 849 850 851 851 852 852 852 852 852 852 851 851 851 851 851 851 850 850 851 851
790 796 789 790 790 794 796 792 792 790 793 797 797 795 792 795 798 795 795 800 796 787 786 787 789 793 796 799 802 804 805 807 809 810 812 813 814 816 818 820 821 823 826 827 828 830 832 833 834 833 833 834 835 835 836 836 837 839 839 840 841 842 843 844 845 845 845 846 847 848 848 849 849 850 850 850 851 851 852 852 852 852 852 852 852 852 851 851 851 850 850 850 850 849 849 850 850
788 795 792 791 791 793 794 792 792 791 795 796 794 794 794 799 799 795 796 795 790 785 784 787 789 791 796 799 801 803 804 806 808 810 812 812 814 816 817 819 820 823 825 827 828 830 831 832 833 833 833 834 835 835 836 836 837 838 839 840 841 842 843 844 844 845 845 846 846 847 848 848 849 849 851 851 852 852 852 852 852 853 852 852 852 851 851 851 851 850 850 850 849 849 849 849 849
784 793 794 792 793 793 791 791 794 793 795 794 794 797 797 796 796 796 797 792 787 786 786 788 791 793 796 799 801 802 804 806 808 809 812 813 814 816 817 819 820 822 824 826 828 829 830 832 832 833 833 833 834 835 836 836 837 838 839 840 841 842 843 844 844 845 845 846 847 847 848 848 849 849 851 852 852 853 853 853 853 853 852 852 852 852 852 852 851 851 850 850 849 849 848 848 849
786 790 792 792 795 793 792 794 795 795 795 795 798 801 798 794 795 798 794 790 788 785 788 790 792 796 797 799 801 802 804 806 808 809 811 813 814 816 817 818 819 821 823 825 827 828 830 831 832 832 833 833 834 835 835 836 837 838 839 840 841 842 843 844 844 845 845 846 847 847 848 848 849 850 851 852 853 853 853 853 853 853 853 853 852 852 852 852 852 851 851 850 850 849 848 848 848
784 786 790 792 795 794 794 797 796 796 796 796 800 802 799 794 799 805 795 788 788 787 791 792 794 798 797 798 800 802 804 806 807 809 811 813 814 816 817 818 819 821 823 824 826 828 829 830 831 832 833 833 834 835 835 836 837 838 839 840 841 842 843 844 844 845 845 846 847 848 848 849 850 851 852 853 853 853 853 853 853 853 853 853 853 853 853 853 852 852 852 851 850 849 849 848 848
783 786 791 793 794 796 796 798 797 797 798 797 797 800 800 797 802 807 797 788 787 789 793 793 795 797 797 798 800 802 803 805 808 808 810 812 813 815 816 817 819 820 822 824 826 828 829 830 831 832 832 833 834 835 835 836 837 838 839 840 841 842 843 844 844 845 845 846 847 848 849 850 851 851 852 853 853 853 853 853 853 853 853 854 854 854 854 854 853 853 853 852 851 849 849 849 848
784 786 794 798 797 800 799 799 798 797 801 795 795 807 807 802 803 800 793 789 788 790 794 794 795 797 798 799 800 803 803 805 807 808 809 810 812 814 816 817 818 820 821 823 826 827 828 829 831 832 832 833 834 835 835 836 837 838 839 840 841 842 843 844 844 845 846 847 848 849 850 850 851 852 853 853 853 853 854 854 854 854 854 854 855 855 855 854 854 853 853 852 851 850 849 849 848
787 787 792 799 803 806 800 798 798 798 801 792 799 820 815 802 801 796 792 791 792 793 794 794 795 796 798 799 801 803 803 804 806 807 809 810 812 813 815 817 818 819 821 823 825 826 828 829 831 832 832 833 834 835 836 836 837 838 839 840 841 842 843 843 844 845 846 848 849 850 851 851 852 853 853 853 853 854 854 854 854 854 855 855 855 855 855 855 854 853 852 851 850 849 849 849 848
789 792 793 792 804 813 802 797 801 801 801 791 801 822 815 803 800 796 793 791 793 796 795 794 795 796 797 799 801 802 802 803 805 806 809 810 811 813 814 817 818 820 821 822 824 825 827 829 830 831 832 833 834 835 836 837 838 838 839 840 841 842 842 844 844 846 847 848 849 850 851 851 852 853 853 854 854 854 854 854 855 855 856 856 856 856 856 855 854 854 853 852 850 849 849 849 848
787 797 801 790 796 810 804 798 799 803 802 793 805 819 811 804 800 796 794 793 794 796 796 795 795 796 797 799 800 801 801 802 804 805 807 810 811 812 814 816 818 819 820 822 823 825 826 828 829 831 832 834 834 835 836 837 838 838 839 840 841 842 843 844 845 846 847 848 849 850 851 852 852 853 853 854 855 854 854 855 855 856 856 856 857 857 856 855 855 854 853 853 852 850 849 849 849
790 793 802 797 795 800 803 803 798 800 802 798 808 816 810 804 800 797 795 795 797 797 797 795 795 796 796 798 799 800 801 802 803 804 806 809 810 812 813 815 818 819 820 822 823 824 826 827 829 830 832 833 834 836 837 837 838 839 840 841 841 843 843 844 845 846 846 847 848 849 851 852 853 853 854 854 855 855 855 855 856 856 857 857 857 857 856 856 855 854 854 853 853 851 849 848 849
795 790 795 797 796 796 804 810 801 798 803 804 806 809 808 806 800 799 797 796 800 799 798 796 795 796 796 796 798 799 801 802 803 803 805 808 809 811 812 815 817 818 820 822 823 824 825 827 828 830 832 833 835 836 837 838 839 840 840 841 842 843 844 844 845 846 846 847 848 849 851 852 853 853 854 854 855 856 856 856 856 857 857 857 857 857 856 856 855 854 854 854 854 852 850 849 849
800 797 796 795 794 796 803 809 804 801 806 807 807 808 811 808 802 802 800 798 801 800 797 796 794 795 796 797 797 798 800 801 802 801 804 807 809 811 812 814 816 818 820 821 823 824 825 827 828 830 832 833 835 836 838 839 839 840 841 842 843 843 844 844 845 846 846 847 848 850 851 852 853 853 854 855 855 856 856 856 857 857 857 857 857 857 856 856 856 855 855 854 854 853 852 851 850
798 796 797 797 797 799 800 802 800 799 806 808 808 813 815 813 807 806 803 798 801 800 797 797 795 795 796 797 796 797 800 799 799 800 803 805 808 810 812 814 815 817 819 821 823 824 825 826 828 830 831 833 835 836 838 839 839 840 841 841 842 843 844 844 845 846 846 847 848 850 851 852 853 853 854 854 855 856 857 857 857 857 857 857 857 857 856 856 856 856 855 855 854 853 852 851 851
792 792 793 794 797 803 801 801 798 794 803 806 805 811 816 813 807 806 803 800 800 801 801 800 798 796 795 796 796 797 799 797 798 801 802 804 807 809 812 813 815 816 819 820 822 823 824 826 827 829 831 833 834 836 837 838 839 839 840 841 841 842 843 844 845 846 847 847 848 850 851 852 852 853 854 854 855 856 857 857 857 858 857 857 857 857 857 857 856 856 855 855 854 853 852 851 851
791 791 791 791 795 802 801 801 799 795 802 804 801 809 815 811 805 803 803 803 802 799 800 801 799 798 796 795 796 796 796 796 798 801 802 803 806 808 811 812 814 816 818 820 821 822 824 825 827 828 830 832 834 835 836 837 838 839 839 840 841 842 843 844 845 846 847 848 849 850 850 852 852 853 854 854 855 856 857 857 857 858 858 858 858 857 857 857 856 856 855 854 853 853 852 851 851
790 788 790 792 794 801 804 800 799 798 802 802 800 805 806 801 799 801 802 802 799 796 796 798 797 798 797 796 796 796 796 798 799 800 800 802 804 807 810 811 813 815 817 819 820 821 823 824 826 828 830 831 833 835 836 837 838 839 840 840 841 842 843 844 845 846 847 848 849 850 850 851 852 853 854 854 855 856 856 857 857 857 858 858 858 858 857 857 857 856 855 855 853 853 851 851 852
789 788 790 792 792 799 805 803 801 799 800 801 801 802 798 793 795 798 797 796 795 795 796 795 795 796 796 794 793 794 796 798 800 799 798 800 803 805 808 810 812 814 815 817 819 820 822 823 825 827 829 831 832 834 835 837 838 839 840 841 842 843 844 844 845 846 847 847 848 849 850 851 852 853 853 854 855 855 856 856 857 857 857 858 857 858 857 856 856 855 855 855 854 852 851 851 851
784 785 788 790 790 795 800 802 802 801 802 802 802 805 799 792 797 797 792 792 794 795 797 797 796 794 794 793 792 792 793 795 798 798 796 797 801 803 806 809 810 812 814 815 816 818 820 822 824 826 828 830 832 833 835 836 838 839 840 841 842 843 844 844 845 845 846 847 848 849 850 851 851 852 853 854 854 854 855 856 856 856 857 857 857 857 857 856 856 855 855 855 854 853 852 851 851
780 782 784 784 789 794 798 801 803 806 810 804 803 818 812 792 793 795 790 794 796 794 796 797 796 794 795 795 793 791 790 791 794 795 795 796 799 802 804 807 808 810 812 813 815 816 818 820 823 825 827 829 831 833 834 836 837 839 840 841 842 842 843 844 844 845 845 846 847 848 849 850 851 852 852 853 853 854 854 855 856 856 856 856 856 856 856 855 855 854 854 854 854 854 853 852 850
785 784 782 780 786 793 797 800 803 807 811 804 800 818 819 798 792 792 791 797 797 793 794 793 794 794 794 795 794 792 791 790 791 792 793 794 797 800 802 805 806 808 810 812 813 815 817 819 821 824 825 827 830 832 833 835 836 838 839 840 840 841 842 843 844 844 845 846 847 848 849 850 850 851 852 852 853 853 854 854 855 855 855 855 855 855 855 854 854 854 854 854 854 854 854 852 851
789 783 779 782 786 791 794 795 799 799 802 804 799 806 816 807 797 792 792 797 798 795 795 791 790 791 791 791 792 790 789 788 789 791 791 793 795 798 800 802 804 806 807 810 812 813 816 818 820 822 824 826 828 830 832 834 835 837 838 839 839 841 841 842 844 844 845 846 847 848 848 849 850 850 851 851 852 853 853 854 854 854 855 854 854 854 854 854 853 854 854 854 854 853 853 852 851
788 780 778 781 784 787 788 790 795 795 801 811 803 801 815 811 796 792 792 795 797 794 793 790 788 788 788 788 788 788 787 786 786 788 789 791 794 796 798 800 802 803 805 808 810 812 815 817 819 821 823 825 827 829 831 832 834 835 837 838 839 840 841 842 843 844 845 846 846 847 848 848 849 849 850 850 851 852 852 853 853 853 853 853 853 853 853 853 853 853 853 853 853 853 852 852 852
782 778 778 780 782 785 787 789 793 798 808 815 805 801 815 810 792 791 795 793 792 787 784 785 784 784 785 784 785 786 786 785 784 784 786 788 791 794 796 799 801 801 803 806 808 810 813 816 818 820 821 824 825 827 829 831 833 834 836 837 838 840 841 841 842 843 844 845 845 846 847 847 848 848 849 849 850 850 851 852 852 852 852 852 852 852 852 852 852 852 852 852 852 852 852 851 851
777 779 782 785 785 785 789 789 791 808 819 813 804 802 812 812 792 786 792 790 785 782 780 782 782 782 782 781 782 784 784 785 784 783 783 785 789 792 795 797 799 800 801 804 807 808 811 814 816 819 820 822 824 826 828 829 831 833 834 836 837 839 840 841 842 842 843 844 844 845 845 846 846 846 847 847 848 849 849 850 850 850 851 851 851 851 851 851 851 851 851 851 851 851 851 851 851
777 781 785 794 797 795 799 799 801 821 827 813 804 802 811 817 798 782 785 783 780 782 781 781 782 781 780 779 779 779 781 783 783 783 782 783 787 790 793 796 798 800 801 802 804 806 809 812 814 817 819 821 823 824 826 828 830 832 833 835 836 838 839 840 841 841 842 842 843 843 843 844 844 845 845 846 846 847 848 848 849 849 849 849 850 849 850 850 850 850 850 850 851 851 851 851 850
779 782 788 802 813 818 822 820 819 823 821 810 804 806 813 810 791 779 781 780 779 780 779 779 780 780 779 777 776 775 776 779 780 781 781 781 784 786 791 795 797 798 801 802 803 804 807 810 813 815 817 820 821 823 825 826 828 830 831 833 835 836 838 839 839 840 840 841 842 842 842 842 843 843 843 844 844 845 846 846 847 847 848 848 848 848 849 849 849 849 850 850 850 850 850 850 850
782 784 789 800 812 828 831 822 819 816 813 807 802 810 813 799 783 777 777 777 777 776 776 777 777 778 778 775 774 773 773 775 777 778 779 779 780 783 788 794 795 797 801 802 801 802 805 808 810 813 816 818 820 822 823 825 826 828 830 832 833 835 836 837 838 838 839 839 840 840 840 840 841 841 841 842 843 843 844 845 845 846 846 847 847 848 848 849 849 849 849 849 849 849 849 849 849
778 774 781 790 794 810 817 809 808 809 809 811 811 814 809 799 791 780 773 773 774 774 775 775 774 775 776 774 773 773 773 773 774 775 776 777 778 781 784 788 792 795 798 799 799 800 803 805 808 811 814 816 818 820 822 823 825 826 828 830 831 833 834 835 836 836 837 837 838 838 838 838 839 839 840 840 841 842 842 843 844 844 845 846 846 847 847 848 848 848 848 848 848 848 848 848 848
777 769 781 791 781 787 800 800 799 801 805 810 811 806 792 787 787 775 772 775 773 775 776 774 775 773 774 776 775 774 773 772 773 774 775 775 776 779 781 783 787 791 794 795 796 798 801 803 806 808 811 814 816 818 820 822 823 825 826 828 829 830 832 833 833 834 835 836 836 836 837 837 838 838 838 839 840 841 841 842 842 843 844 844 845 845 846 846 847 847 847 847 847 847 847 847 847
779 778 786 782 769 776 795 804 799 800 812 811 803 797 784 781 785 776 775 779 776 777 776 774 777 774 774 777 776 775 775 773 773 773 774 774 775 777 779 781 784 786 790 792 794 796 799 801 803 805 808 811 813 816 818 820 822 823 824 826 827 828 829 830 831 832 833 833 834 835 835 836 836 837 837 838 838 839 840 840 841 842 842 843 844 844 844 845 845 845 846 846 846 846 846 846 846
779 784 778 771 773 778 788 807 812 812 820 812 798 796 791 792 797 786 781 784 781 778 776 776 778 776 776 777 777 777 775 774 774 773 773 774 774 777 778 780 783 785 788 790 792 794 796 798 800 803 805 807 810 812 814 817 819 821 822 824 825 826 827 828 828 829 830 831 832 832 833 833 834 835 835 836 837 837 838 839 840 841 841 842 842 842 843 843 844 844 844 844 845 845 845 845 845
770 773 766 772 794 798 794 808 819 820 822 812 799 797 794 794 794 786 784 785 782 779 778 778 778 778 778 777 777 778 775 775 775 774 775 774 774 777 777 779 782 784 786 787 789 792 794 797 798 800 803 804 807 809 811 813 815 817 819 821 822 824 825 826 826 827 828 828 829 830 831 831 832 833 834 835 835 836 837 838 838 839 839 840 840 841 841 842 842 843 843 843 843 843 844 844 844
767 768 766 771 785 794 796 799 804 810 818 815 807 803 797 789 782 781 784 782 779 781 781 781 780 779 779 778 778 779 778 778 777 776 775 774 775 776 777 779 781 783 785 786 787 789 791 795 798 799 800 802 804 806 808 810 812 814 816 817 819 821 822 824 824 825 825 826 827 828 828 829 830 831 832 833 834 835 835 836 837 837 837 838 839 839 840 840 841 842 842 842 842 842 843 843 842
774 777 779 779 781 784 790 792 791 798 811 815 816 810 796 784 778 779 782 779 777 780 781 782 781 779 780 780 779 779 779 779 778 777 776 774 775 776 777 780 781 782 784 785 787 788 790 794 797 797 798 799 801 803 805 808 809 811 812 814 816 818 819 821 822 823 823 823 825 825 826 827 828 829 830 831 832 833 834 834 835 835 836 836 837 838 839 839 840 841 841 841 841 841 842 841 841
770 773 774 777 781 786 799 806 795 791 801 806 813 814 796 780 777 776 776 776 777 778 780 782 781 781 782 781 780 780 780 780 779 777 776 776 776 776 778 780 781 782 783 784 785 787 789 793 795 795 795 796 798 800 803 805 807 808 810 811 813 814 816 818 819 820 820 821 822 823 824 825 826 827 828 829 830 831 832 833 833 834 834 835 836 837 838 838 839 840 840 841 841 840 841 840 839